sat.trackr.live / text

‹ back to catalog

STARLINK-37106

NORAD 68219 · 2026-053N

PAYLOAD ACTIVE UNKNOWN

§ Identity

Operator
Country
US
Launch date
2026-03-17
Launch site
AFWTR
Launch vehicle
Mass (kg)
RCS (m²)

Purposes: comms

External: N2YO · Heavens-Above · Gunter

§ Orbital elements

Epoch: 2026-05-25T03:07:02.489088Z

Period
93.91 min
Inclination
97.2864°
Eccentricity
0.0001356
Mean motion
15.33459055 rev/d
Perigee alt
464.6 km
Apogee alt
466.4 km
Semi-major
6,843.6 km
B*
5.5564e-4
RAAN
20.5934°
Arg perigee
93.7041°
Mean anomaly
266.4357°
Rev number
1,193

§ Raw data

STARLINK-371061 68219U 26053N   26145.12988992  .00017914  00000+0  55564-3 0  99972 68219  97.2864  20.5934 0001356  93.7041 266.4357 15.33459055 11933

JSON: /api/v1/satellites/68219 · /tle

For live sub-satellite position, see the globe view (requires WebGL).

§ Visibility from observer

Set your observer location to see the next 7 days of passes ≥ 10°. The values pass through the URL so the page stays shareable.

No JS? Fill the form by hand. The geolocation button needs JavaScript.